{"data":{"norad_id":53677,"intl_designator":"2022-105AF","name":"STARLINK-4579","alt_names":[],"object_type":"PAYLOAD","status":"ACTIVE","operator":null,"country":"US","launch_date":"2022-08-31","launch_site_code":"AFWTR","launch_vehicle":null,"mission":null,"orbit_class":"UNKNOWN","rcs_meters":null,"size_class":null,"mass_kg":null,"dimensions":null,"purposes":["comms"],"wikipedia_slug":null,"has_3d_model":false,"image_url":null,"decayed_at":null,"tle_current":{"epoch":"2026-09-20T14:20:53.155680Z","epoch_age_seconds":72868,"freshness":"FRESH","line1":"1 53677U 22105AF  26263.59783745  .00001135  00000+0  37479-4 0  9998","line2":"2 53677  97.2849 140.3039 0001527  91.0408 269.1010 15.33438598222752","mean_motion":15.33438598,"eccentricity":0.0001527,"inclination_deg":97.2849,"raan_deg":140.3039,"arg_perigee_deg":91.0408,"mean_anomaly_deg":269.101,"bstar":3.7479e-5,"rev_number":22275,"period_min":93.906596708739,"perigee_km":464.51718952095,"apogee_km":466.60725526347,"semimajor_km":6843.6992223922,"source":"CELESTRAK","updated_at":"2026-09-21T09:00:32.977926Z"}}}